History for DABS

Tebessa, Algeria

Daily Weekly Monthly
Daily Summary for Saturday, November 29, 2014
  Actual: Average: Record:
Temperature
Mean Temperature: 60 °F / 16 °C - :  
Max Temperature: 63 °F / 17 °C 55 °F / 13 °C - ()
Min Temperature: 57 °F / 14 °C 36 °F / 2 °C - ()
Degree Days
Heating Degree Days: 5    
Growing Degree Days 10 (Base 50)    
Moisture
Dew Point 41 °F / 5 °C    
Average Humidity 50    
Maximum Humidity 59    
Minimum Humidity 35    
Precipitation
Precipitation 0.00 in / 0.0 cm 0.03 in / 0.8 cm - ()
Sea Level Pressure
Sea Level Pressure 29.76 in / 1007.76 hPa   
Wind
Wind Speed 8 mph / 13 km/h ()  
Max Wind Speed 18 mph / 30 km/h   
Max Gust Speed -   
Visibility 5.9 miles / 9.6 kilometers   
Events     

Key: T is trace of precipitation, MM is missing value
Source: Averaged Metar Reports

Graphs

Observations

History Graphs Observations

Obs Go Here...

Features

Weather Apps

WunderRadio

Weather Underground Apps
Check out our wide variety of mobile and setup applications.

Weather Underground Applications

Top of Page

Copyright© 2014
Weather Underground, Inc.
Time(CET)TemperatureDew PointHumidity Sea Level Pressure Visibility Wind DirectionWind SpeedGust SpeedPrecipitationEvents Conditions
12:00 AM 59.0 °F / 15.0 °C 39.2 °F / 4.0 °C 48% 29.74 in / 1007 hPa 6.2 miles / 10.0 kilometers SE 9.2 mph / 14.8 km/h - N/A   Scattered Clouds
12:30 AM 59.0 °F / 15.0 °C 39.2 °F / 4.0 °C 48% 29.74 in / 1007 hPa 6.2 miles / 10.0 kilometers SE 9.2 mph / 14.8 km/h - N/A   Scattered Clouds
1:00 AM 59 °F / 15 °C 39 °F / 4 °C 36%  in /  hPa 6 miles / 10 kilometers SE 4.6 mph / 7.4 km/h - -   Partly Cloudy
1:00 AM 59.0 °F / 15.0 °C 39.2 °F / 4.0 °C 48% 29.77 in / 1008 hPa 6.2 miles / 10.0 kilometers SE 4.6 mph / 7.4 km/h - N/A   Scattered Clouds
1:30 AM 59.0 °F / 15.0 °C 39.2 °F / 4.0 °C 48% 29.77 in / 1008 hPa 6.2 miles / 10.0 kilometers East 4.6 mph / 7.4 km/h - N/A   Scattered Clouds
2:00 AM 59.0 °F / 15.0 °C 39.2 °F / 4.0 °C 48% 29.77 in / 1008 hPa 6.2 miles / 10.0 kilometers East 2.3 mph / 3.7 km/h - N/A   Scattered Clouds
2:30 AM 59.0 °F / 15.0 °C 39.2 °F / 4.0 °C 48% 29.77 in / 1008 hPa 6.2 miles / 10.0 kilometers East 2.3 mph / 3.7 km/h - N/A   Scattered Clouds
3:00 AM 59.0 °F / 15.0 °C 39.2 °F / 4.0 °C 48% 29.77 in / 1008 hPa - SSW 13.8 mph / 22.2 km/h - N/A   Scattered Clouds
3:30 AM 59.0 °F / 15.0 °C 39.2 °F / 4.0 °C 48% 29.77 in / 1008 hPa 6.2 miles / 10.0 kilometers ENE 11.5 mph / 18.5 km/h - N/A   Scattered Clouds
4:00 AM 59 °F / 15 °C 41 °F / 5 °C 40%  in /  hPa 6 miles / 10 kilometers East 11.5 mph / 18.5 km/h - -   Partly Cloudy
4:00 AM 59.0 °F / 15.0 °C 41.0 °F / 5.0 °C 51% 29.77 in / 1008 hPa 6.2 miles / 10.0 kilometers East 11.5 mph / 18.5 km/h - N/A   Scattered Clouds
4:30 AM 59.0 °F / 15.0 °C 41.0 °F / 5.0 °C 51% 29.77 in / 1008 hPa 6.2 miles / 10.0 kilometers SSW 18.4 mph / 29.6 km/h - N/A   Scattered Clouds
5:00 AM 59.0 °F / 15.0 °C 39.2 °F / 4.0 °C 48% 29.77 in / 1008 hPa 6.2 miles / 10.0 kilometers SSW 4.6 mph / 7.4 km/h - N/A   Scattered Clouds
5:30 AM 57.2 °F / 14.0 °C 39.2 °F / 4.0 °C 51% 29.77 in / 1008 hPa 6.2 miles / 10.0 kilometers ENE 9.2 mph / 14.8 km/h - N/A   Scattered Clouds
6:00 AM 59.0 °F / 15.0 °C 44.6 °F / 7.0 °C 59% 29.74 in / 1007 hPa 6.2 miles / 10.0 kilometers ESE 13.8 mph / 22.2 km/h - N/A   Scattered Clouds
6:30 AM 59.0 °F / 15.0 °C 44.6 °F / 7.0 °C 59% 29.74 in / 1007 hPa 6.2 miles / 10.0 kilometers NE 4.6 mph / 7.4 km/h - N/A   Scattered Clouds
7:00 AM 59 °F / 15 °C 44 °F / 6 °C 45%  in /  hPa 9 miles / 15 kilometers SE 16.1 mph / 25.9 km/h - -   Partly Cloudy
7:00 AM 59.0 °F / 15.0 °C 42.8 °F / 6.0 °C 55% 29.74 in / 1007 hPa 6.2 miles / 10.0 kilometers SE 16.1 mph / 25.9 km/h - N/A   Scattered Clouds
7:30 AM 59.0 °F / 15.0 °C 42.8 °F / 6.0 °C 55% 29.74 in / 1007 hPa 5.0 miles / 8.0 kilometers SE 13.8 mph / 22.2 km/h - N/A   Mostly Cloudy
8:00 AM 57.2 °F / 14.0 °C 42.8 °F / 6.0 °C 59% 29.77 in / 1008 hPa 5.0 miles / 8.0 kilometers ESE 16.1 mph / 25.9 km/h - N/A   Mostly Cloudy
8:30 AM 57.2 °F / 14.0 °C 42.8 °F / 6.0 °C 59% 29.77 in / 1008 hPa 5.0 miles / 8.0 kilometers ESE 16.1 mph / 25.9 km/h - N/A   Mostly Cloudy
9:00 AM 60.8 °F / 16.0 °C 42.8 °F / 6.0 °C 52% 29.77 in / 1008 hPa 5.0 miles / 8.0 kilometers ESE 13.8 mph / 22.2 km/h - N/A   Mostly Cloudy
9:30 AM 60.8 °F / 16.0 °C 42.8 °F / 6.0 °C 52% 29.77 in / 1008 hPa 5.0 miles / 8.0 kilometers South 13.8 mph / 22.2 km/h - N/A   Mostly Cloudy
10:00 AM 63 °F / 17 °C 42 °F / 6 °C 35%  in /  hPa 5 miles / 8 kilometers SE 4.6 mph / 7.4 km/h - -   Scattered Clouds
10:00 AM 62.6 °F / 17.0 °C 42.8 °F / 6.0 °C 48% 29.80 in / 1009 hPa 5.0 miles / 8.0 kilometers SE 4.6 mph / 7.4 km/h - N/A   Unknown